W4HSV Weather Reports


time (UTC)temp
C
wind
direction
speed
KPH
gust
KPH
rain 1hr
cm
rain 24hr
cm
rain mn
cm
humidity
%
barometer
mb
20260505040326 18 184 4.8 8.0 0.00 0.00 0.00 63 1012.3
20260505040213 18 208 4.8 8.0 0.00 0.00 0.00 63 1012.2
20260505040124 18 197 4.8 8.0 0.00 0.00 0.00 63 1012.2
20260505040032 18 168 4.8 8.0 0.00 0.00 0.00 62 1012.2
20260505035919 18 184 4.8 8.0 0.00 0.00 0.00 62 1012.3
20260505035845 18 191 4.8 8.0 0.00 0.00 0.00 62 1012.3
20260505035711 18 212 4.8 8.0 0.00 0.00 0.00 62 1012.2
20260505035619 18 200 4.8 9.7 0.00 0.00 0.00 62 1012.2
20260505035511 18 209 3.2 9.7 0.00 0.00 0.00 62 1012.2
20260505035418 18 176 4.8 9.7 0.00 0.00 0.00 62 1012.2
20260505035325 18 172 4.8 9.7 0.00 0.00 0.00 62 1012.2
20260505035213 18 161 4.8 9.7 0.00 0.00 0.00 62 1012.2
20260505035141 18 171 4.8 9.7 0.00 0.00 0.00 61 1012.2
20260505035054 18 200 4.8 9.7 0.00 0.00 0.00 61 1012.2
20260505034848 18 160 4.8 9.7 0.00 0.00 0.00 61 1012.2
20260505034714 18 200 4.8 9.7 0.00 0.00 0.00 61 1012.3
20260505034622 18 201 4.8 9.7 0.00 0.00 0.00 61 1012.3
20260505034550 18 205 4.8 9.7 0.00 0.00 0.00 61 1012.3
20260505034417 18 198 6.4 9.7 0.00 0.00 0.00 61 1012.3
20260505034324 18 201 6.4 9.7 0.00 0.00 0.00 61 1012.3
20260505034236 18 198 6.4 9.7 0.00 0.00 0.00 61 1012.3
20260505034142 18 184 6.4 9.7 0.00 0.00 0.00 61 1012.3
20260505034028 18 186 6.4 9.7 0.00 0.00 0.00 61 1012.3
20260505033915 18 193 4.8 6.4 0.00 0.00 0.00 61 1012.2
20260505033822 18 175 3.2 6.4 0.00 0.00 0.00 60 1012.2
20260505033729 18 207 3.2 6.4 0.00 0.00 0.00 60 1012.2
20260505033640 18 192 3.2 8.0 0.00 0.00 0.00 60 1012.2
20260505033550 18 191 4.8 8.0 0.00 0.00 0.00 60 1012.2
20260505033323 18 162 3.2 8.0 0.00 0.00 0.00 60 1012.3
20260505033211 18 169 3.2 8.0 0.00 0.00 0.00 60 1012.3
20260505033119 19 175 3.2 8.0 0.00 0.00 0.00 60 1012.3
20260505033011 19 194 3.2 8.0 0.00 0.00 0.00 60 1012.3
20260505032938 19 188 4.8 8.0 0.00 0.00 0.00 60 1012.3
20260505032824 19 196 4.8 9.7 0.00 0.00 0.00 60 1012.3
20260505032711 19 198 3.2 9.7 0.00 0.00 0.00 60 1012.3
20260505032619 19 204 3.2 9.7 0.00 0.00 0.00 60 1012.3
20260505032511 19 196 4.8 9.7 0.00 0.00 0.00 60 1012.3
20260505032438 19 183 4.8 9.7 0.00 0.00 0.00 59 1012.3
20260505032344 19 200 4.8 9.7 0.00 0.00 0.00 59 1012.3
20260505032210 19 176 4.8 9.7 0.00 0.00 0.00 60 1012.3
20260505032117 19 168 6.4 9.7 0.00 0.00 0.00 60 1012.2
20260505032048 19 181 6.4 9.7 0.00 0.00 0.00 60 1012.2
20260505031824 19 184 6.4 9.7 0.00 0.00 0.00 59 1012.3
20260505031710 19 196 4.8 9.7 0.00 0.00 0.00 59 1012.3
20260505031618 19 203 6.4 9.7 0.00 0.00 0.00 59 1012.2
20260505031526 19 186 4.8 9.7 0.00 0.00 0.00 60 1012.2
20260505031415 19 182 4.8 12.9 0.00 0.00 0.00 59 1012.3
20260505031327 19 188 4.8 12.9 0.00 0.00 0.00 59 1012.3
20260505031215 19 173 4.8 12.9 0.00 0.00 0.00 59 1012.3
20260505031143 19 188 4.8 12.9 0.00 0.00 0.00 59 1012.3
20260505031029 19 192 4.8 12.9 0.00 0.00 0.00 60 1012.2
20260505030916 19 188 4.8 12.9 0.00 0.00 0.00 59 1012.3
20260505030844 19 209 6.4 12.9 0.00 0.00 0.00 59 1012.3
20260505030730 19 187 6.4 12.9 0.00 0.00 0.00 59 1012.3
20260505030621 19 191 4.8 14.5 0.00 0.00 0.00 59 1012.3
20260505030551 19 196 4.8 14.5 0.00 0.00 0.00 59 1012.3
20260505030326 19 200 6.4 12.9 0.00 0.00 0.00 60 1012.4
20260505030214 19 195 4.8 12.9 0.00 0.00 0.00 62 1012.3
20260505030125 19 179 4.8 12.9 0.00 0.00 0.00 62 1012.3
20260505030032 19 163 4.8 12.9 0.00 0.00 0.00 61 1012.3
20260505025939 19 174 4.8 12.9 0.00 0.00 0.00 62 1012.3
20260505025826 19 197 4.8 12.9 0.00 0.00 0.00 62 1012.3
20260505025713 19 161 6.4 12.9 0.00 0.00 0.00 61 1012.2
20260505025621 19 164 4.8 8.0 0.00 0.00 0.00 61 1012.2
20260505025547 20 178 3.2 8.0 0.00 0.00 0.00 61 1012.3
20260505025418 20 184 3.2 8.0 0.00 0.00 0.00 63 1012.3
20260505025326 20 177 4.8 8.0 0.00 0.00 0.00 60 1012.3
20260505025234 20 180 4.8 8.0 0.00 0.00 0.00 60 1012.3
20260505025120 20 157 4.8 8.0 0.00 0.00 0.00 59 1012.2
20260505025050 20 165 4.8 8.0 0.00 0.00 0.00 59 1012.2
20260505024828 20 205 4.8 8.0 0.00 0.00 0.00 55 1012.3
20260505024716 20 194 3.2 8.0 0.00 0.00 0.00 55 1012.2
20260505024623 20 179 3.2 8.0 0.00 0.00 0.00 55 1012.2
20260505024550 20 165 3.2 8.0 0.00 0.00 0.00 55 1012.3
20260505024438 20 182 3.2 8.0 0.00 0.00 0.00 55 1012.3
20260505024324 20 202 4.8 8.0 0.00 0.00 0.00 55 1012.3
20260505024215 20 206 4.8 8.0 0.00 0.00 0.00 55 1012.3
20260505024122 20 180 4.8 8.0 0.00 0.00 0.00 55 1012.3
20260505024050 20 207 4.8 9.7 0.00 0.00 0.00 55 1012.4
20260505023916 20 196 4.8 14.5 0.00 0.00 0.00 56 1012.3
20260505023824 20 200 3.2 14.5 0.00 0.00 0.00 55 1012.3
20260505023710 20 175 4.8 14.5 0.00 0.00 0.00 56 1012.3
20260505023622 20 207 4.8 14.5 0.00 0.00 0.00 55 1012.3
20260505023553 20 193 4.8 14.5 0.00 0.00 0.00 55 1012.3
20260505023327 20 199 6.4 14.5 0.00 0.00 0.00 55 1012.3
20260505023213 20 198 8.0 14.5 0.00 0.00 0.00 55 1012.3
20260505023121 20 202 8.0 14.5 0.00 0.00 0.00 55 1012.3
20260505023013 20 184 6.4 12.9 0.00 0.00 0.00 55 1012.2
20260505022921 20 192 6.4 12.9 0.00 0.00 0.00 55 1012.2
20260505022848 20 190 6.4 12.9 0.00 0.00 0.00 55 1012.2
20260505022734 20 190 6.4 12.9 0.00 0.00 0.00 55 1012.2
20260505022620 20 170 4.8 12.9 0.00 0.00 0.00 55 1012.1
20260505022529 20 175 6.4 12.9 0.00 0.00 0.00 55 1012.1
20260505022421 20 189 6.4 12.9 0.00 0.00 0.00 55 1012.0
20260505022329 20 205 8.0 12.9 0.00 0.00 0.00 55 1012.0
20260505022216 20 183 6.4 12.9 0.00 0.00 0.00 55 1012.1
20260505022123 20 190 6.4 11.3 0.00 0.00 0.00 55 1012.1
20260505022056 20 177 6.4 11.3 0.00 0.00 0.00 55 1012.1
20260505021810 20 200 3.2 9.7 0.00 0.00 0.00 54 1012.0
20260505021718 20 206 3.2 8.0 0.00 0.00 0.00 54 1012.1
20260505021624 20 196 3.2 8.0 0.00 0.00 0.00 54 1012.1
20260505021512 20 186 3.2 4.8 0.00 0.00 0.00 54 1012.1
20260505021440 20 186 3.2 4.8 0.00 0.00 0.00 54 1012.0
20260505021309 20 190 3.2 6.4 0.00 0.00 0.00 54 1012.0
20260505021218 20 190 3.2 6.4 0.00 0.00 0.00 54 1012.0
20260505021125 20 173 3.2 8.0 0.00 0.00 0.00 54 1012.0
20260505021012 20 202 3.2 8.0 0.00 0.00 0.00 53 1011.9
20260505020921 20 210 1.6 8.0 0.00 0.00 0.00 54 1011.9
20260505020812 20 200 3.2 8.0 0.00 0.00 0.00 53 1011.8
20260505020740 20 215 3.2 8.0 0.00 0.00 0.00 53 1011.9
20260505020626 20 215 3.2 11.3 0.00 0.00 0.00 53 1011.9
20260505020555 20 207 4.8 11.3 0.00 0.00 0.00 53 1011.8
20260505020328 21 213 4.8 11.3 0.00 0.00 0.00 53 1011.9
20260505020221 21 209 4.8 11.3 0.00 0.00 0.00 53 1011.9
20260505020127 21 180 4.8 11.3 0.00 0.00 0.00 53 1011.9
20260505020014 21 194 4.8 11.3 0.00 0.00 0.00 53 1011.9
20260505015921 21 204 6.4 11.3 0.00 0.00 0.00 53 1011.9
20260505015810 21 209 6.4 11.3 0.00 0.00 0.00 53 1011.9
20260505015716 21 196 3.2 9.7 0.00 0.00 0.00 52 1011.9
20260505015627 21 176 4.8 9.7 0.00 0.00 0.00 52 1011.9
20260505015515 21 200 4.8 9.7 0.00 0.00 0.00 52 1011.9
20260505015423 21 169 4.8 9.7 0.00 0.00 0.00 52 1011.9
20260505015310 21 196 6.4 9.7 0.00 0.00 0.00 52 1011.9
20260505015216 21 220 6.4 9.7 0.00 0.00 0.00 52 1011.9
20260505015125 21 209 6.4 9.7 0.00 0.00 0.00 52 1011.9
20260505015100 21 190 6.4 9.7 0.00 0.00 0.00 52 1011.8
20260505014813 21 194 6.4 11.3 0.00 0.00 0.00 52 1011.8
20260505014721 21 190 6.4 11.3 0.00 0.00 0.00 52 1011.8
20260505014628 21 197 6.4 11.3 0.00 0.00 0.00 52 1011.8
20260505014520 21 163 4.8 11.3 0.00 0.00 0.00 51 1011.8
20260505014428 21 179 4.8 12.9 0.00 0.00 0.00 52 1011.8
20260505014315 21 190 6.4 12.9 0.00 0.00 0.00 52 1011.8
20260505014224 21 190 6.4 12.9 0.00 0.00 0.00 52 1011.8
20260505014131 21 200 6.4 12.9 0.00 0.00 0.00 52 1011.8
20260505014017 21 196 6.4 12.9 0.00 0.00 0.00 52 1011.7
20260505013928 21 184 6.4 12.9 0.00 0.00 0.00 51 1011.7
20260505013814 21 202 6.4 12.9 0.00 0.00 0.00 52 1011.8
20260505013722 21 180 6.4 12.9 0.00 0.00 0.00 51 1011.8
20260505013610 21 171 8.0 12.9 0.00 0.00 0.00 52 1011.8
20260505013544 21 188 8.0 12.9 0.00 0.00 0.00 52 1011.8
20260505013319 21 190 6.4 12.9 0.00 0.00 0.00 51 1011.8
20260505013227 21 184 4.8 9.7 0.00 0.00 0.00 51 1011.8
20260505013113 21 190 6.4 9.7 0.00 0.00 0.00 51 1011.7
20260505013020 21 192 6.4 9.7 0.00 0.00 0.00 51 1011.7
20260505012928 21 171 4.8 9.7 0.00 0.00 0.00 51 1011.8
20260505012819 21 146 6.4 9.7 0.00 0.00 0.00 51 1011.8
20260505012727 21 193 6.4 9.7 0.00 0.00 0.00 51 1011.8
20260505012614 21 177 6.4 9.7 0.00 0.00 0.00 51 1011.7
20260505012522 21 178 6.4 9.7 0.00 0.00 0.00 51 1011.7
20260505012429 21 169 6.4 9.7 0.00 0.00 0.00 51 1011.7
20260505012320 21 213 4.8 9.7 0.00 0.00 0.00 51 1011.7
20260505012228 21 190 6.4 9.7 0.00 0.00 0.00 51 1011.7
20260505012114 21 198 6.4 9.7 0.00 0.00 0.00 50 1011.7
20260505012044 21 207 6.4 9.7 0.00 0.00 0.00 50 1011.7
20260505011817 21 217 4.8 9.7 0.00 0.00 0.00 50 1011.8
20260505011728 21 191 4.8 9.7 0.00 0.00 0.00 50 1011.8
20260505011636 22 183 6.4 12.9 0.00 0.00 0.00 50 1011.7
20260505011524 22 189 4.8 12.9 0.00 0.00 0.00 50 1011.7
20260505011410 22 210 4.8 12.9 0.00 0.00 0.00 50 1011.7
20260505011317 22 213 6.4 12.9 0.00 0.00 0.00 50 1011.8
20260505011224 22 184 6.4 12.9 0.00 0.00 0.00 50 1011.8
20260505011132 22 190 6.4 12.9 0.00 0.00 0.00 50 1011.7
20260505011042 22 208 4.8 12.9 0.00 0.00 0.00 50 1011.7
20260505010909 22 199 8.0 16.1 0.00 0.00 0.00 50 1011.7
20260505010838 22 192 8.0 16.1 0.00 0.00 0.00 50 1011.7
20260505010743 22 200 8.0 16.1 0.00 0.00 0.00 50 1011.7
20260505010649 22 188 8.0 16.1 0.00 0.00 0.00 50 1011.7
20260505010619 22 185 8.0 16.1 0.00 0.00 0.00 50 1011.7
20260505010315 22 174 8.0 16.1 0.00 0.00 0.00 50 1011.7
20260505010222 22 213 8.0 16.1 0.00 0.00 0.00 50 1011.7
20260505010111 22 180 6.4 16.1 0.00 0.00 0.00 50 1011.6
20260505010038 22 203 6.4 14.5 0.00 0.00 0.00 49 1011.6
20260505005924 22 184 6.4 14.5 0.00 0.00 0.00 49 1011.6
20260505005812 22 208 6.4 14.5 0.00 0.00 0.00 49 1011.7
20260505005723 22 191 6.4 14.5 0.00 0.00 0.00 49 1011.7
20260505005611 22 198 9.7 14.5 0.00 0.00 0.00 49 1011.6
20260505005518 22 216 9.7 14.5 0.00 0.00 0.00 49 1011.6
20260505005427 22 175 9.7 14.5 0.00 0.00 0.00 49 1011.6
20260505005334 22 136 9.7 14.5 0.00 0.00 0.00 49 1011.4
20260505005220 22 206 9.7 14.5 0.00 0.00 0.00 49 1011.4
20260505005130 22 188 8.0 12.9 0.00 0.00 0.00 49 1011.4
20260505005101 22 182 8.0 12.9 0.00 0.00 0.00 49 1011.5
20260505004815 22 200 8.0 12.9 0.00 0.00 0.00 49 1011.4
20260505004722 22 178 8.0 14.5 0.00 0.00 0.00 49 1011.4
20260505004613 22 188 9.7 12.9 0.00 0.00 0.00 49 1011.4
20260505004541 22 177 8.0 12.9 0.00 0.00 0.00 49 1011.4
20260505004426 22 184 8.0 14.5 0.00 0.00 0.00 49 1011.4
20260505004333 22 198 6.4 16.1 0.00 0.00 0.00 49 1011.3
20260505004219 22 184 6.4 16.1 0.00 0.00 0.00 49 1011.3
20260505004127 22 165 6.4 16.1 0.00 0.00 0.00 49 1011.3
20260505004018 22 164 6.4 16.1 0.00 0.00 0.00 49 1011.3
20260505003925 22 180 6.4 16.1 0.00 0.00 0.00 48 1011.3
20260505003811 22 167 8.0 16.1 0.00 0.00 0.00 48 1011.3
20260505003739 22 207 8.0 16.1 0.00 0.00 0.00 48 1011.2
20260505003626 22 200 4.8 16.1 0.00 0.00 0.00 48 1011.2
20260505003559 22 188 4.8 12.9 0.00 0.00 0.00 48 1011.3
20260505003313 22 182 4.8 14.5 0.00 0.00 0.00 48 1011.3
20260505003240 22 195 6.4 16.1 0.00 0.00 0.00 48 1011.3
20260505003126 22 205 8.0 16.1 0.00 0.00 0.00 48 1011.3
20260505003013 22 190 8.0 16.1 0.00 0.00 0.00 48 1011.3
20260505002921 23 186 6.4 16.1 0.00 0.00 0.00 48 1011.3
20260505002812 23 184 6.4 19.3 0.00 0.00 0.00 47 1011.3
20260505002720 23 178 6.4 19.3 0.00 0.00 0.00 48 1011.3
20260505002628 23 178 6.4 19.3 0.00 0.00 0.00 47 1011.4
20260505002514 23 182 8.0 19.3 0.00 0.00 0.00 47 1011.2
20260505002423 23 178 8.0 19.3 0.00 0.00 0.00 48 1011.2
20260505002329 23 200 8.0 19.3 0.00 0.00 0.00 47 1011.2
20260505002303 23 209 8.0 19.3 0.00 0.00 0.00 48 1011.3
20260505002207 23 177 9.7 19.3 0.00 0.00 0.00 47 1011.2
20260505002115 23 203 9.7 19.3 0.00 0.00 0.00 47 1011.2
20260505001828 23 213 8.0 19.3 0.00 0.00 0.00 47 1011.2
20260505001714 23 166 9.7 19.3 0.00 0.00 0.00 47 1011.2
20260505001625 23 182 9.7 19.3 0.00 0.00 0.00 47 1011.2
20260505001512 23 182 9.7 19.3 0.00 0.00 0.00 47 1011.1
20260505001419 23 175 11.3 24.1 0.00 0.00 0.00 47 1011.2
20260505001327 23 188 12.9 24.1 0.00 0.00 0.00 47 1011.2
20260505001214 23 194 11.3 24.1 0.00 0.00 0.00 47 1011.2
20260505001142 23 223 9.7 24.1 0.00 0.00 0.00 47 1011.2
20260505001014 23 202 8.0 24.1 0.00 0.00 0.00 47 1011.1
20260505000921 23 194 9.7 24.1 0.00 0.00 0.00 47 1011.1
20260505000810 23 202 9.7 24.1 0.00 0.00 0.00 47 1011.1
20260505000738 23 177 11.3 24.1 0.00 0.00 0.00 47 1011.2
20260505000626 23 209 11.3 24.1 0.00 0.00 0.00 47 1011.2
20260505000600 23 198 11.3 22.5 0.00 0.00 0.00 46 1011.2
20260505000333 23 182 11.3 22.5 0.00 0.00 0.00 46 1011.2
20260505000219 23 187 12.9 22.5 0.00 0.00 0.00 46 1011.2
20260505000126 23 184 12.9 22.5 0.00 0.00 0.00 46 1011.2
20260505000014 23 171 14.5 22.5 0.00 0.00 0.00 46 1011.2
20260504235923 23 207 12.9 20.9 0.00 0.00 0.00 46 1011.2
20260504235815 23 196 9.7 20.9 0.00 0.00 0.00 47 1011.1
20260504235743 23 179 9.7 20.9 0.00 0.00 0.00 46 1011.1
20260504235610 23 178 11.3 20.9 0.00 0.00 0.00 47 1011.2
20260504235519 23 208 9.7 20.9 0.00 0.00 0.00 46 1011.1
20260504235426 24 223 9.7 20.9 0.00 0.00 0.00 47 1011.1
20260504235318 24 202 11.3 20.9 0.00 0.00 0.00 47 1011.1
20260504235225 24 212 14.5 20.9 0.00 0.00 0.00 46 1011.1
20260504235153 24 184 12.9 19.3 0.00 0.00 0.00 46 1011.2
20260504235102 24 171 12.9 22.5 0.00 0.00 0.00 46 1011.2
20260504234814 24 167 9.7 22.5 0.00 0.00 0.00 46 1011.2
20260504234741 24 83 9.7 22.5 0.00 0.00 0.00 46 1011.2
20260504234612 24 171 12.9 22.5 0.00 0.00 0.00 46 1011.2
20260504234540 24 173 12.9 22.5 0.00 0.00 0.00 46 1011.2
20260504234426 24 211 12.9 22.5 0.00 0.00 0.00 46 1011.2
20260504234333 24 215 12.9 22.5 0.00 0.00 0.00 45 1011.3
20260504234239 24 175 11.3 24.1 0.00 0.00 0.00 45 1011.1
20260504234146 24 196 11.3 19.3 0.00 0.00 0.00 45 1011.1
20260504234012 24 190 12.9 19.3 0.00 0.00 0.00 45 1011.1
20260504233924 24 159 12.9 19.3 0.00 0.00 0.00 45 1011.1
20260504233811 24 165 9.7 25.7 0.00 0.00 0.00 45 1011.1
20260504233739 24 186 9.7 25.7 0.00 0.00 0.00 45 1011.1
20260504233708 24 180 11.3 25.7 0.00 0.00 0.00 45 1011.1
20260504233618 24 155 14.5 25.7 0.00 0.00 0.00 45 1011.1
20260504233314 25 197 14.5 25.7 0.00 0.00 0.00 44 1011.2
20260504233221 25 183 14.5 25.7 0.00 0.00 0.00 44 1011.2
20260504233128 25 182 16.1 25.7 0.00 0.00 0.00 45 1011.2
20260504233015 25 212 14.5 25.7 0.00 0.00 0.00 44 1011.1
20260504232924 25 202 14.5 25.7 0.00 0.00 0.00 44 1011.1
20260504232814 25 222 11.3 22.5 0.00 0.00 0.00 44 1011.2
20260504232722 25 216 12.9 22.5 0.00 0.00 0.00 45 1011.2
20260504232610 25 218 14.5 22.5 0.00 0.00 0.00 45 1011.2
20260504232538 25 206 12.9 22.5 0.00 0.00 0.00 45 1011.2
20260504232423 25 167 9.7 22.5 0.00 0.00 0.00 45 1011.2
20260504232310 25 220 8.0 22.5 0.00 0.00 0.00 44 1011.2
20260504232221 25 192 11.3 22.5 0.00 0.00 0.00 44 1011.2
20260504232129 25 175 14.5 22.5 0.00 0.00 0.00 44 1011.3
20260504232100 25 196 14.5 22.5 0.00 0.00 0.00 43 1011.3
20260504231814 25 180 16.1 22.5 0.00 0.00 0.00 43 1011.3
20260504231721 25 181 12.9 20.9 0.00 0.00 0.00 44 1011.3
20260504231612 25 205 11.3 20.9 0.00 0.00 0.00 44 1011.3
20260504231520 25 171 11.3 27.4 0.00 0.00 0.00 43 1011.3
20260504231428 25 197 11.3 29.0 0.00 0.00 0.00 43 1011.3
20260504231315 25 211 9.7 29.0 0.00 0.00 0.00 43 1011.2
20260504231243 25 194 11.3 29.0 0.00 0.00 0.00 43 1011.2
20260504231113 25 200 12.9 29.0 0.00 0.00 0.00 43 1011.2
20260504231021 25 194 11.3 29.0 0.00 0.00 0.00 43 1011.2
20260504230928 25 227 9.7 29.0 0.00 0.00 0.00 43 1011.2
20260504230814 25 142 11.3 29.0 0.00 0.00 0.00 43 1011.3
20260504230721 25 205 16.1 29.0 0.00 0.00 0.00 42 1011.3
20260504230628 25 195 17.7 29.0 0.00 0.00 0.00 42 1011.3
20260504230543 25 207 14.5 27.4 0.00 0.00 0.00 41 1011.2
20260504230315 25 250 12.9 24.1 0.00 0.00 0.00 42 1011.2
20260504230242 25 193 14.5 22.5 0.00 0.00 0.00 42 1011.2
20260504230129 25 265 12.9 24.1 0.00 0.00 0.00 42 1011.2
20260504230017 25 173 12.9 19.3 0.00 0.00 0.00 42 1011.2
20260504225929 25 244 14.5 22.5 0.00 0.00 0.00 41 1011.2
20260504225838 25 217 16.1 22.5 0.00 0.00 0.00 41 1011.2
20260504225723 25 192 12.9 19.3 0.00 0.00 0.00 41 1011.2
20260504225650 25 190 11.3 20.9 0.00 0.00 0.00 41 1011.3
20260504225517 25 197 9.7 20.9 0.00 0.00 0.00 41 1011.2
20260504225424 25 215 8.0 25.7 0.00 0.00 0.00 41 1011.2
20260504225315 25 184 11.3 25.7 0.00 0.00 0.00 41 1011.2
20260504225244 25 235 11.3 25.7 0.00 0.00 0.00 41 1011.2
20260504225149 25 201 11.3 25.7 0.00 0.00 0.00 41 1011.3
20260504225057 25 209 14.5 29.0 0.00 0.00 0.00 41 1011.3
20260504224811 25 198 14.5 29.0 0.00 0.00 0.00 41 1011.3
20260504224722 26 132 14.5 29.0 0.00 0.00 0.00 42 1011.3
20260504224649 26 182 14.5 29.0 0.00 0.00 0.00 42 1011.3
20260504224516 26 209 11.3 29.0 0.00 0.00 0.00 42 1011.3
20260504224422 26 179 11.3 29.0 0.00 0.00 0.00 42 1011.3
20260504224349 26 177 14.5 29.0 0.00 0.00 0.00 42 1011.3
20260504224215 26 167 14.5 29.0 0.00 0.00 0.00 42 1011.2
20260504224123 26 180 12.9 20.9 0.00 0.00 0.00 42 1011.2
20260504224034 26 258 12.9 20.9 0.00 0.00 0.00 42 1011.3
20260504223921 26 188 11.3 20.9 0.00 0.00 0.00 43 1011.3
20260504223848 26 192 9.7 19.3 0.00 0.00 0.00 42 1011.3
20260504223715 26 179 11.3 19.3 0.00 0.00 0.00 43 1011.3
20260504223623 26 186 11.3 19.3 0.00 0.00 0.00 42 1011.3
20260504223558 26 119 9.7 24.1 0.00 0.00 0.00 42 1011.3
20260504223332 25 213 8.0 24.1 0.00 0.00 0.00 42 1011.5
20260504223218 25 205 9.7 24.1 0.00 0.00 0.00 42 1011.5
20260504223126 25 190 11.3 24.1 0.00 0.00 0.00 42 1011.5
20260504223014 25 207 12.9 24.1 0.00 0.00 0.00 41 1011.5
20260504222942 26 175 12.9 24.1 0.00 0.00 0.00 41 1011.5
20260504222833 26 176 16.1 37.0 0.00 0.00 0.00 41 1011.5
20260504222720 26 180 16.1 37.0 0.00 0.00 0.00 41 1011.5
20260504222627 26 194 12.9 37.0 0.00 0.00 0.00 41 1011.5
20260504222515 26 213 14.5 37.0 0.00 0.00 0.00 41 1011.6
20260504222423 26 303 12.9 37.0 0.00 0.00 0.00 42 1011.6
20260504222311 26 182 12.9 37.0 0.00 0.00 0.00 41 1011.6
20260504222222 26 217 14.5 37.0 0.00 0.00 0.00 40 1011.6
20260504222131 26 200 16.1 37.0 0.00 0.00 0.00 40 1011.6
20260504222102 26 224 19.3 37.0 0.00 0.00 0.00 40 1011.6
20260504221814 26 215 19.3 30.6 0.00 0.00 0.00 39 1011.6
20260504221725 26 196 17.7 30.6 0.00 0.00 0.00 39 1011.6
20260504221612 26 196 16.1 25.7 0.00 0.00 0.00 39 1011.6
20260504221519 26 182 16.1 25.7 0.00 0.00 0.00 38 1011.6
20260504221428 26 203 17.7 25.7 0.00 0.00 0.00 38 1011.6
20260504221315 26 200 14.5 27.4 0.00 0.00 0.00 39 1011.5
20260504221222 26 190 14.5 27.4 0.00 0.00 0.00 38 1011.5
20260504221113 26 216 16.1 27.4 0.00 0.00 0.00 38 1011.6
20260504221021 26 177 16.1 27.4 0.00 0.00 0.00 38 1011.6
20260504220928 26 169 16.1 30.6 0.00 0.00 0.00 39 1011.6
20260504220814 26 178 14.5 30.6 0.00 0.00 0.00 39 1011.7
20260504220722 26 174 16.1 30.6 0.00 0.00 0.00 39 1011.7
20260504220613 26 187 16.1 30.6 0.00 0.00 0.00 40 1011.7
20260504220544 26 207 14.5 30.6 0.00 0.00 0.00 40 1011.7
20260504220317 26 185 16.1 30.6 0.00 0.00 0.00 40 1011.7
20260504220245 26 171 17.7 30.6 0.00 0.00 0.00 39 1011.7
20260504220131 26 198 17.7 30.6 0.00 0.00 0.00 41 1011.6
20260504220021 26 257 19.3 30.6 0.00 0.00 0.00 41 1011.6
20260504215947 26 202 20.9 30.6 0.00 0.00 0.00 41 1011.6
20260504215813 26 189 17.7 30.6 0.00 0.00 0.00 42 1011.6
20260504215720 26 191 17.7 30.6 0.00 0.00 0.00 42 1011.6
20260504215627 26 175 12.9 30.6 0.00 0.00 0.00 42 1011.6
20260504215515 26 143 11.3 30.6 0.00 0.00 0.00 43 1011.6
20260504215427 26 187 14.5 30.6 0.00 0.00 0.00 42 1011.6
20260504215314 26 207 17.7 30.6 0.00 0.00 0.00 42 1011.6
20260504215220 26 198 17.7 30.6 0.00 0.00 0.00 43 1011.6
20260504215127 26 188 17.7 29.0 0.00 0.00 0.00 42 1011.7
20260504215057 26 180 19.3 29.0 0.00 0.00 0.00 42 1011.6
20260504214834 26 166 14.5 29.0 0.00 0.00 0.00 43 1011.7
20260504214719 26 250 9.7 22.5 0.00 0.00 0.00 43 1011.6
20260504214647 26 180 9.7 22.5 0.00 0.00 0.00 43 1011.6
20260504214514 26 137 11.3 25.7 0.00 0.00 0.00 42 1011.6
20260504214422 26 220 11.3 25.7 0.00 0.00 0.00 42 1011.6
20260504214310 25 209 11.3 25.7 0.00 0.00 0.00 42 1011.7
20260504214242 26 236 12.9 25.7 0.00 0.00 0.00 42 1011.7
20260504214128 26 264 14.5 25.7 0.00 0.00 0.00 43 1011.7
20260504214016 26 201 11.3 25.7 0.00 0.00 0.00 43 1011.7
20260504213923 25 219 12.9 25.7 0.00 0.00 0.00 43 1011.7
20260504213811 25 171 14.5 25.7 0.00 0.00 0.00 42 1011.6
20260504213718 25 203 12.9 25.7 0.00 0.00 0.00 41 1011.7
20260504213629 25 244 11.3 27.4 0.00 0.00 0.00 41 1011.7
20260504213559 25 227 12.9 27.4 0.00 0.00 0.00 42 1011.7
20260504213313 25 177 16.1 27.4 0.00 0.00 0.00 41 1011.6
20260504213221 25 182 16.1 27.4 0.00 0.00 0.00 42 1011.6
20260504213112 26 177 14.5 27.4 0.00 0.00 0.00 42 1011.6
20260504213019 26 158 14.5 27.4 0.00 0.00 0.00 43 1011.6
20260504212947 26 207 16.1 27.4 0.00 0.00 0.00 43 1011.6
20260504212833 26 197 16.1 27.4 0.00 0.00 0.00 43 1011.7
20260504212721 26 194 19.3 27.4 0.00 0.00 0.00 43 1011.7
20260504212609 26 174 20.9 27.4 0.00 0.00 0.00 44 1011.7
20260504212517 26 202 17.7 25.7 0.00 0.00 0.00 44 1011.7
20260504212449 26 183 16.1 25.7 0.00 0.00 0.00 44 1011.7
20260504212314 26 169 12.9 25.7 0.00 0.00 0.00 43 1011.5
20260504212242 26 184 12.9 25.7 0.00 0.00 0.00 43 1011.5
20260504212128 26 175 14.5 25.7 0.00 0.00 0.00 44 1011.6
20260504212058 26 189 14.5 25.7 0.00 0.00 0.00 44 1011.5
20260504211835 26 202 12.9 24.1 0.00 0.00 0.00 43 1011.6
20260504211723 26 193 11.3 29.0 0.00 0.00 0.00 43 1011.6
20260504211609 26 248 8.0 29.0 0.00 0.00 0.00 44 1011.5
20260504211516 26 238 9.7 29.0 0.00 0.00 0.00 43 1011.6
20260504211423 26 192 9.7 32.2 0.00 0.00 0.00 43 1011.6
20260504211310 26 286 9.7 32.2 0.00 0.00 0.00 43 1011.7
20260504211222 26 191 9.7 32.2 0.00 0.00 0.00 41 1011.7
20260504211110 26 206 11.3 32.2 0.00 0.00 0.00 41 1011.7
20260504211017 26 175 16.1 32.2 0.00 0.00 0.00 41 1011.7
20260504210924 26 183 16.1 32.2 0.00 0.00 0.00 39 1011.7
20260504210812 26 226 14.5 32.2 0.00 0.00 0.00 39 1011.7
20260504210740 26 241 16.1 32.2 0.00 0.00 0.00 39 1011.7
20260504210630 26 228 17.7 32.2 0.00 0.00 0.00 40 1011.7
20260504210600 26 211 16.1 27.4 0.00 0.00 0.00 40 1011.7
20260504210313 26 183 12.9 33.8 0.00 0.00 0.00 40 1011.8
20260504210221 26 197 12.9 33.8 0.00 0.00 0.00 42 1011.8
20260504210113 26 194 14.5 33.8 0.00 0.00 0.00 41 1011.7
20260504210040 26 193 16.1 33.8 0.00 0.00 0.00 42 1011.7
20260504205928 26 126 14.5 33.8 0.00 0.00 0.00 41 1011.7
20260504205835 26 194 14.5 33.8 0.00 0.00 0.00 43 1011.7
20260504205722 26 212 19.3 33.8 0.00 0.00 0.00 43 1011.7
20260504205609 26 163 22.5 33.8 0.00 0.00 0.00 44 1011.8
20260504205515 26 167 19.3 30.6 0.00 0.00 0.00 44 1011.8
20260504205427 26 180 16.1 35.4 0.00 0.00 0.00 46 1011.8
20260504205314 26 157 9.7 24.1 0.00 0.00 0.00 48 1011.8
20260504205220 26 178 11.3 24.1 0.00 0.00 0.00 46 1011.8
20260504205147 26 194 11.3 27.4 0.00 0.00 0.00 46 1011.8
20260504205056 26 183 11.3 29.0 0.00 0.00 0.00 47 1011.8
20260504204814 26 229 14.5 29.0 0.00 0.00 0.00 46 1011.9
20260504204722 26 167 16.1 29.0 0.00 0.00 0.00 45 1011.9
20260504204609 26 183 14.5 29.0 0.00 0.00 0.00 44 1012.0
20260504204538 26 175 16.1 29.0 0.00 0.00 0.00 44 1011.9
20260504204424 26 189 17.7 29.0 0.00 0.00 0.00 44 1011.9
20260504204311 26 167 20.9 30.6 0.00 0.00 0.00 44 1011.9
20260504204222 26 212 19.3 27.4 0.00 0.00 0.00 44 1011.9
20260504204110 26 198 14.5 24.1 0.00 0.00 0.00 45 1011.8
20260504204017 26 157 12.9 24.1 0.00 0.00 0.00 46 1011.8
20260504203946 26 142 11.3 24.1 0.00 0.00 0.00 45 1011.8
20260504203811 26 191 11.3 24.1 0.00 0.00 0.00 47 1011.9
20260504203719 26 163 11.3 30.6 0.00 0.00 0.00 45 1011.9
20260504203631 26 140 12.9 30.6 0.00 0.00 0.00 47 1011.9
20260504203602 26 153 12.9 30.6 0.00 0.00 0.00 47 1011.9
20260504203316 26 178 16.1 30.6 0.00 0.00 0.00 46 1012.0
20260504203223 26 184 16.1 30.6 0.00 0.00 0.00 46 1012.0
20260504203115 26 178 14.5 30.6 0.00 0.00 0.00 45 1012.0
20260504203023 25 178 14.5 30.6 0.00 0.00 0.00 45 1012.0
20260504202911 25 190 17.7 25.7 0.00 0.00 0.00 44 1012.0
20260504202817 25 178 16.1 25.7 0.00 0.00 0.00 44 1012.0
20260504202725 25 206 14.5 25.7 0.00 0.00 0.00 44 1012.0
20260504202616 25 200 14.5 20.9 0.00 0.00 0.00 45 1012.0
20260504202524 25 200 12.9 19.3 0.00 0.00 0.00 46 1012.0
20260504202411 25 185 14.5 19.3 0.00 0.00 0.00 45 1012.1
20260504202319 25 171 12.9 19.3 0.00 0.00 0.00 44 1012.1
20260504202247 25 158 11.3 20.9 0.00 0.00 0.00 45 1012.1
20260504202114 25 192 11.3 22.5 0.00 0.00 0.00 45 1012.0
20260504202049 25 265 11.3 22.5 0.00 0.00 0.00 45 1012.0
20260504201822 25 195 11.3 35.4 0.00 0.00 0.00 45 1012.1
20260504201709 25 109 11.3 35.4 0.00 0.00 0.00 45 1012.1
20260504201617 25 150 11.3 35.4 0.00 0.00 0.00 45 1012.1
20260504201525 25 142 12.9 35.4 0.00 0.00 0.00 46 1012.1
20260504201415 25 206 12.9 35.4 0.00 0.00 0.00 46 1012.1
20260504201322 25 178 12.9 35.4 0.00 0.00 0.00 46 1012.1
20260504201248 25 194 12.9 35.4 0.00 0.00 0.00 45 1012.2
20260504201115 25 188 17.7 35.4 0.00 0.00 0.00 45 1012.2
20260504201042 25 194 17.7 35.4 0.00 0.00 0.00 45 1012.2
20260504200929 25 186 16.1 30.6 0.00 0.00 0.00 45 1012.2
20260504200821 25 103 12.9 20.9 0.00 0.00 0.00 45 1012.2
20260504200748 25 193 11.3 19.3 0.00 0.00 0.00 47 1012.2
20260504200614 25 222 9.7 25.7 0.00 0.00 0.00 48 1012.1
20260504200545 25 212 9.7 25.7 0.00 0.00 0.00 47 1012.1
20260504200318 25 200 9.7 25.7 0.00 0.00 0.00 48 1012.2
20260504200229 25 200 11.3 25.7 0.00 0.00 0.00 47 1012.2
20260504200116 25 185 14.5 27.4 0.00 0.00 0.00 46 1012.3
20260504200023 25 223 12.9 27.4 0.00 0.00 0.00 46 1012.3
20260504195912 25 181 12.9 27.4 0.00 0.00 0.00 46 1012.3
20260504195839 25 187 14.5 27.4 0.00 0.00 0.00 46 1012.3
20260504195724 25 189 16.1 27.4 0.00 0.00 0.00 46 1012.3
20260504195616 26 158 14.5 27.4 0.00 0.00 0.00 45 1012.3
20260504195524 26 187 14.5 27.4 0.00 0.00 0.00 45 1012.3
20260504195410 26 174 12.9 27.4 0.00 0.00 0.00 45 1012.2
20260504195317 26 200 14.5 27.4 0.00 0.00 0.00 45 1012.4
20260504195225 26 165 16.1 29.0 0.00 0.00 0.00 45 1012.4
20260504195118 26 168 16.1 27.4 0.00 0.00 0.00 45 1012.4
20260504195047 25 157 14.5 27.4 0.00 0.00 0.00 45 1012.4
20260504194821 25 169 11.3 22.5 0.00 0.00 0.00 46 1012.4
20260504194729 26 221 11.3 22.5 0.00 0.00 0.00 47 1012.4
20260504194619 26 146 12.9 22.5 0.00 0.00 0.00 46 1012.5
20260504194527 26 124 9.7 22.5 0.00 0.00 0.00 46 1012.5
20260504194416 26 154 9.7 22.5 0.00 0.00 0.00 47 1012.5
20260504194322 25 132 12.9 22.5 0.00 0.00 0.00 47 1012.5
20260504194210 25 197 11.3 22.5 0.00 0.00 0.00 47 1012.5
20260504194119 25 153 9.7 24.1 0.00 0.00 0.00 48 1012.5
20260504194010 25 172 9.7 24.1 0.00 0.00 0.00 49 1012.6
20260504193917 25 203 11.3 25.7 0.00 0.00 0.00 49 1012.6
20260504193824 25 193 12.9 25.7 0.00 0.00 0.00 48 1012.6
20260504193712 25 180 11.3 25.7 0.00 0.00 0.00 48 1012.5
20260504193620 25 207 8.0 27.4 0.00 0.00 0.00 48 1012.5
20260504193556 25 178 9.7 27.4 0.00 0.00 0.00 47 1012.6
20260504193309 26 325 12.9 27.4 0.00 0.00 0.00 47 1012.7
20260504193218 26 174 16.1 27.4 0.00 0.00 0.00 49 1012.6
20260504193126 26 143 14.5 27.4 0.00 0.00 0.00 47 1012.6
20260504193017 26 161 14.5 27.4 0.00 0.00 0.00 49 1012.7
20260504192924 26 206 14.5 27.4 0.00 0.00 0.00 48 1012.7
20260504192812 26 203 16.1 27.4 0.00 0.00 0.00 47 1012.7
20260504192720 26 176 12.9 24.1 0.00 0.00 0.00 48 1012.7
20260504192626 26 175 9.7 19.3 0.00 0.00 0.00 51 1012.7
20260504192513 25 200 6.4 17.7 0.00 0.00 0.00 50 1012.7
20260504192425 25 174 6.4 17.7 0.00 0.00 0.00 49 1012.7
20260504192312 25 120 6.4 17.7 0.00 0.00 0.00 49 1012.8
20260504192221 25 215 8.0 17.7 0.00 0.00 0.00 49 1012.8
20260504192149 25 190 9.7 17.7 0.00 0.00 0.00 49 1012.8
20260504192058 25 178 12.9 19.3 0.00 0.00 0.00 49 1012.7
20260504191817 25 202 12.9 19.3 0.00 0.00 0.00 48 1012.8
20260504191744 25 220 9.7 19.3 0.00 0.00 0.00 49 1012.8
20260504191610 25 203 9.7 19.3 0.00 0.00 0.00 50 1012.9
20260504191518 25 177 11.3 19.3 0.00 0.00 0.00 49 1012.9
20260504191424 25 167 11.3 19.3 0.00 0.00 0.00 49 1012.9
20260504191316 25 199 12.9 19.3 0.00 0.00 0.00 47 1012.9
20260504191243 25 196 14.5 19.3 0.00 0.00 0.00 47 1012.9
20260504191111 25 223 14.5 19.3 0.00 0.00 0.00 48 1013.0
20260504191017 25 192 12.9 20.9 0.00 0.00 0.00 50 1013.0
20260504190925 25 198 11.3 19.3 0.00 0.00 0.00 50 1013.0
20260504190813 25 200 11.3 19.3 0.00 0.00 0.00 48 1013.1
20260504190725 25 232 9.7 19.3 0.00 0.00 0.00 51 1013.1
20260504190652 25 192 8.0 19.3 0.00 0.00 0.00 49 1013.1
20260504190620 25 179 8.0 19.3 0.00 0.00 0.00 49 1013.1
20260504190311 25 170 9.7 19.3 0.00 0.00 0.00 49 1013.1
20260504190239 25 221 11.3 19.3 0.00 0.00 0.00 49 1013.1
20260504190125 25 205 9.7 19.3 0.00 0.00 0.00 49 1013.1
20260504190037 25 194 6.4 22.5 0.00 0.00 0.00 48 1013.1
20260504185923 25 190 8.0 22.5 0.00 0.00 0.00 47 1013.1
20260504185810 25 160 9.7 22.5 0.00 0.00 0.00 47 1013.2
20260504185718 25 190 9.7 20.9 0.00 0.00 0.00 48 1013.2
20260504185627 25 192 9.7 20.9 0.00 0.00 0.00 48 1013.2
20260504185518 25 179 12.9 20.9 0.00 0.00 0.00 48 1013.2
20260504185425 25 242 14.5 20.9 0.00 0.00 0.00 47 1013.2
20260504185332 25 290 14.5 20.9 0.00 0.00 0.00 48 1013.2
20260504185239 25 211 12.9 20.9 0.00 0.00 0.00 47 1013.1
20260504185125 25 258 12.9 20.9 0.00 0.00 0.00 48 1013.1
20260504185055 25 220 12.9 20.9 0.00 0.00 0.00 48 1013.2
20260504184813 25 185 14.5 20.9 0.00 0.00 0.00 47 1013.3
20260504184741 25 209 9.7 22.5 0.00 0.00 0.00 47 1013.3
20260504184648 25 181 8.0 14.5 0.00 0.00 0.00 47 1013.2
20260504184514 25 191 9.7 19.3 0.00 0.00 0.00 47 1013.4
20260504184421 25 210 9.7 19.3 0.00 0.00 0.00 47 1013.4
20260504184328 26 177 9.7 24.1 0.00 0.00 0.00 47 1013.4
20260504184219 26 229 9.7 24.1 0.00 0.00 0.00 47 1013.5
20260504184127 26 150 8.0 24.1 0.00 0.00 0.00 47 1013.5
20260504184035 26 208 6.4 24.1 0.00 0.00 0.00 50 1013.5
20260504183920 26 195 9.7 24.1 0.00 0.00 0.00 49 1013.5
20260504183829 25 229 9.7 24.1 0.00 0.00 0.00 49 1013.4
20260504183715 25 270 11.3 24.1 0.00 0.00 0.00 49 1013.4
20260504183627 25 214 9.7 24.1 0.00 0.00 0.00 48 1013.4
20260504183557 25 219 8.0 17.7 0.00 0.00 0.00 48 1013.5
20260504183331 25 232 8.0 16.1 0.00 0.00 0.00 48 1013.4
20260504183217 25 195 11.3 16.1 0.00 0.00 0.00 46 1013.5
20260504183124 25 210 11.3 20.9 0.00 0.00 0.00 46 1013.5
20260504183016 25 207 11.3 20.9 0.00 0.00 0.00 47 1013.5
20260504182923 25 261 9.7 20.9 0.00 0.00 0.00 49 1013.5
20260504182810 25 292 8.0 20.9 0.00 0.00 0.00 48 1013.6
20260504182717 25 186 6.4 24.1 0.00 0.00 0.00 48 1013.6
20260504182625 25 215 6.4 24.1 0.00 0.00 0.00 49 1013.6
20260504182517 25 200 8.0 25.7 0.00 0.00 0.00 47 1013.5
20260504182424 25 248 12.9 25.7 0.00 0.00 0.00 48 1013.5
20260504182311 25 252 12.9 25.7 0.00 0.00 0.00 49 1013.5
20260504182238 25 254 11.3 25.7 0.00 0.00 0.00 51 1013.5
20260504182125 25 159 12.9 25.7 0.00 0.00 0.00 49 1013.5
20260504182059 25 164 14.5 25.7 0.00 0.00 0.00 49 1013.5
20260504181833 25 186 17.7 25.7 0.00 0.00 0.00 48 1013.8
20260504181718 25 189 17.7 25.7 0.00 0.00 0.00 48 1013.8
20260504181627 25 207 17.7 29.0 0.00 0.00 0.00 49 1013.8
20260504181513 25 234 17.7 32.2 0.00 0.00 0.00 49 1013.8
20260504181422 25 200 12.9 24.1 0.00 0.00 0.00 49 1013.8
20260504181313 25 182 14.5 24.1 0.00 0.00 0.00 49 1013.9
20260504181220 25 257 12.9 24.1 0.00 0.00 0.00 49 1013.9
20260504181128 25 257 11.3 24.1 0.00 0.00 0.00 48 1013.8
20260504181016 25 281 11.3 24.1 0.00 0.00 0.00 48 1013.9
20260504180922 25 202 11.3 24.1 0.00 0.00 0.00 49 1013.9
20260504180814 25 196 12.9 24.1 0.00 0.00 0.00 49 1014.0
20260504180721 25 245 14.5 24.1 0.00 0.00 0.00 48 1014.0
20260504180629 25 200 12.9 19.3 0.00 0.00 0.00 49 1013.9
20260504180559 25 233 11.3 19.3 0.00 0.00 0.00 49 1013.9
20260504180334 25 244 8.0 19.3 0.00 0.00 0.00 49 1013.9
20260504180223 25 157 8.0 19.3 0.00 0.00 0.00 50 1013.9
20260504180110 25 263 9.7 19.3 0.00 0.00 0.00 50 1014.0
20260504180018 25 227 9.7 19.3 0.00 0.00 0.00 50 1014.0
20260504175925 25 247 11.3 24.1 0.00 0.00 0.00 48 1014.0
20260504175812 25 220 11.3 24.1 0.00 0.00 0.00 48 1014.0
20260504175720 25 178 11.3 24.1 0.00 0.00 0.00 50 1014.0
20260504175612 25 238 11.3 24.1 0.00 0.00 0.00 51 1014.0
20260504175520 25 186 9.7 24.1 0.00 0.00 0.00 50 1014.0
20260504175447 25 162 11.3 24.1 0.00 0.00 0.00 51 1014.0
20260504175313 25 188 14.5 24.1 0.00 0.00 0.00 49 1014.0
20260504175221 25 188 14.5 24.1 0.00 0.00 0.00 50 1014.0
20260504175128 25 209 14.5 25.7 0.00 0.00 0.00 49 1014.0
20260504175102 25 165 14.5 25.7 0.00 0.00 0.00 49 1014.0
20260504174816 25 198 11.3 25.7 0.00 0.00 0.00 50 1014.1
20260504174721 25 277 9.7 25.7 0.00 0.00 0.00 52 1014.1
20260504174629 25 228 6.4 25.7 0.00 0.00 0.00 52 1014.1
20260504174520 25 276 6.4 25.7 0.00 0.00 0.00 51 1014.1
20260504174428 25 246 9.7 25.7 0.00 0.00 0.00 51 1014.1
20260504174316 25 233 9.7 25.7 0.00 0.00 0.00 50 1014.2
20260504174223 25 177 11.3 25.7 0.00 0.00 0.00 51 1014.2
20260504174109 25 217 12.9 25.7 0.00 0.00 0.00 51 1014.3
20260504174016 25 188 11.3 24.1 0.00 0.00 0.00 52 1014.1
20260504173928 25 212 9.7 17.7 0.00 0.00 0.00 52 1014.1
20260504173837 24 196 8.0 16.1 0.00 0.00 0.00 52 1014.2
20260504173722 24 218 6.4 24.1 0.00 0.00 0.00 50 1014.2
20260504173649 24 185 8.0 24.1 0.00 0.00 0.00 51 1014.3
20260504173600 24 105 9.7 22.5 0.00 0.00 0.00 51 1014.3
20260504173317 24 200 11.3 22.5 0.00 0.00 0.00 51 1014.4
20260504173224 24 200 12.9 22.5 0.00 0.00 0.00 52 1014.4
20260504173111 24 203 8.0 22.5 0.00 0.00 0.00 51 1014.5
20260504173019 24 190 8.0 22.5 0.00 0.00 0.00 51 1014.5
20260504172927 24 235 11.3 22.5 0.00 0.00 0.00 51 1014.5
20260504172814 24 238 16.1 24.1 0.00 0.00 0.00 51 1014.5
20260504172726 24 198 16.1 24.1 0.00 0.00 0.00 51 1014.5
20260504172614 24 244 12.9 20.9 0.00 0.00 0.00 52 1014.5
20260504172521 24 156 11.3 20.9 0.00 0.00 0.00 51 1014.5
20260504172410 24 232 9.7 22.5 0.00 0.00 0.00 51 1014.5
20260504172318 24 198 11.3 22.5 0.00 0.00 0.00 51 1014.5
20260504172230 24 226 11.3 22.5 0.00 0.00 0.00 51 1014.5
20260504172158 24 185 9.7 22.5 0.00 0.00 0.00 51 1014.5
20260504172107 24 174 8.0 22.5 0.00 0.00 0.00 51 1014.5
20260504171820 24 229 9.7 22.5 0.00 0.00 0.00 54 1014.5
20260504171728 24 184 12.9 22.5 0.00 0.00 0.00 51 1014.6
20260504171619 24 198 11.3 22.5 0.00 0.00 0.00 51 1014.7
20260504171547 24 198 8.0 17.7 0.00 0.00 0.00 51 1014.7
20260504171434 24 248 6.4 12.9 0.00 0.00 0.00 51 1014.7
20260504171321 24 243 4.8 12.9 0.00 0.00 0.00 53 1014.7
20260504171249 24 254 6.4 14.5 0.00 0.00 0.00 54 1014.6
20260504171135 24 270 8.0 16.1 0.00 0.00 0.00 52 1014.7
20260504171022 24 269 6.4 16.1 0.00 0.00 0.00 52 1014.7
20260504170931 24 270 8.0 16.1 0.00 0.00 0.00 52 1014.8
20260504170821 24 231 6.4 16.1 0.00 0.00 0.00 53 1014.8
20260504170728 24 259 8.0 16.1 0.00 0.00 0.00 51 1014.8
20260504170616 24 197 11.3 19.3 0.00 0.00 0.00 51 1014.9
20260504170547 24 197 11.3 19.3 0.00 0.00 0.00 50 1014.9
20260504170325 24 196 11.3 19.3 0.00 0.00 0.00 51 1014.8
20260504170213 24 259 11.3 19.3 0.00 0.00 0.00 51 1014.8
20260504170121 24 273 11.3 19.3 0.00 0.00 0.00 52 1014.8
20260504160315 22 215 11.3 22.5 0.00 0.00 0.00 53 1015.4
20260504160224 22 252 11.3 22.5 0.00 0.00 0.00 55 1015.4
20260504160111 22 209 8.0 16.1 0.00 0.00 0.00 55 1015.5
20260504151122 21 207 14.5 24.1 0.00 0.00 0.00 54 1015.7
20260504151011 21 200 11.3 24.1 0.00 0.00 0.00 54 1015.6
20260504150919 21 187 9.7 20.9 0.00 0.00 0.00 56 1015.7
20260504150826 21 261 8.0 14.5 0.00 0.00 0.00 55 1015.7
20260504150714 21 227 6.4 19.3 0.00 0.00 0.00 55 1015.7
20260504150645 21 254 8.0 19.3 0.00 0.00 0.00 56 1015.7
20260504150615 21 176 9.7 19.3 0.00 0.00 0.00 56 1015.7
20260504150327 21 244 9.7 19.3 0.00 0.00 0.00 55 1015.7
20260504150215 21 180 8.0 19.3 0.00 0.00 0.00 54 1015.8
20260504150123 21 197 9.7 19.3 0.00 0.00 0.00 55 1015.8
20260504141314 18 224 4.8 16.1 0.00 0.00 0.00 61 1016.1
20260504141222 18 205 8.0 16.1 0.00 0.00 0.00 60 1016.1
20260504141129 18 191 9.7 16.1 0.00 0.00 0.00 60 1016.1
20260504141017 18 215 6.4 16.1 0.00 0.00 0.00 61 1016.2
20260504140924 18 144 6.4 16.1 0.00 0.00 0.00 60 1016.2
20260504140815 18 198 9.7 16.1 0.00 0.00 0.00 59 1016.2
20260504140723 18 155 11.3 16.1 0.00 0.00 0.00 59 1016.2
20260504140631 18 188 9.7 17.7 0.00 0.00 0.00 61 1016.3
20260504140602 18 183 9.7 16.1 0.00 0.00 0.00 59 1016.2
20260504140334 18 193 9.7 14.5 0.00 0.00 0.00 60 1016.3
20260504140225 18 220 6.4 16.1 0.00 0.00 0.00 61 1016.3
20260504140112 18 209 6.4 16.1 0.00 0.00 0.00 61 1016.4
20260504130727 16 194 9.7 14.5 0.00 0.00 0.00 63 1016.5
20260504130615 16 190 8.0 16.1 0.00 0.00 0.00 63 1016.5
20260504130550 16 209 8.0 16.1 0.00 0.00 0.00 63 1016.5
20260504130324 15 184 6.4 16.1 0.00 0.00 0.00 64 1016.5
20260504130211 15 198 8.0 16.1 0.00 0.00 0.00 63 1016.5
20260504130117 15 184 6.4 16.1 0.00 0.00 0.00 64 1016.5
20260504120312 12 141 6.4 11.3 0.00 0.00 0.00 73 1015.9
20260504120221 12 130 6.4 11.3 0.00 0.00 0.00 74 1015.9
20260504120112 12 130 6.4 11.3 0.00 0.00 0.00 74 1016.0
20260504110628 9 145 4.8 6.4 0.00 0.00 0.00 84 1015.6
20260504110559 9 146 4.8 6.4 0.00 0.00 0.00 84 1015.5
20260504110333 9 146 4.8 4.8 0.00 0.00 0.00 84 1015.5
20260504110245 9 146 4.8 4.8 0.00 0.00 0.00 84 1015.5
20260504110110 9 146 3.2 4.8 0.00 0.00 0.00 84 1015.5
20260504100543 9 146 1.6 4.8 0.00 0.00 0.00 85 1015.4
20260504100317 9 151 1.6 4.8 0.00 0.00 0.00 85 1015.4
20260504100224 9 151 1.6 4.8 0.00 0.00 0.00 85 1015.4
20260504100113 9 155 0.0 4.8 0.00 0.00 0.00 85 1015.4
20260504090119 10 131 1.6 3.2 0.00 0.00 0.00 85 1015.2
20260504081823 10 131 0.0 3.2 0.00 0.00 0.00 79 1015.4
20260504081711 10 131 0.0 3.2 0.00 0.00 0.00 79 1015.4
20260504081619 10 131 0.0 3.2 0.00 0.00 0.00 80 1015.4
20260504081510 10 131 0.0 3.2 0.00 0.00 0.00 79 1015.3
20260504081418 10 131 0.0 3.2 0.00 0.00 0.00 79 1015.3
20260504081346 10 131 1.6 3.2 0.00 0.00 0.00 79 1015.3
20260504081213 10 131 1.6 4.8 0.00 0.00 0.00 79 1015.3
20260504081119 10 131 1.6 4.8 0.00 0.00 0.00 79 1015.3
20260504081027 10 131 1.6 4.8 0.00 0.00 0.00 79 1015.3
20260504080918 10 131 0.0 4.8 0.00 0.00 0.00 79 1015.3
20260504080826 10 131 0.0 4.8 0.00 0.00 0.00 79 1015.3
20260504080734 10 131 1.6 4.8 0.00 0.00 0.00 79 1015.4
20260504080620 10 131 1.6 4.8 0.00 0.00 0.00 79 1015.4
20260504080549 10 131 1.6 4.8 0.00 0.00 0.00 79 1015.4
20260504080343 10 131 1.6 4.8 0.00 0.00 0.00 80 1015.3
20260504080215 10 131 3.2 4.8 0.00 0.00 0.00 80 1015.3
20260504080122 10 131 3.2 4.8 0.00 0.00 0.00 80 1015.3
20260504070323 10 131 0.0 1.6 0.00 0.00 0.00 79 1015.7
20260504070210 10 131 0.0 1.6 0.00 0.00 0.00 79 1015.7
20260504070118 10 131 0.0 3.2 0.00 0.00 0.00 79 1015.7
20260504060210 11 136 4.8 6.4 0.00 0.00 0.00 76 1016.1
20260504060118 11 132 4.8 8.0 0.00 0.00 0.00 76 1016.1
20260504050724 12 142 1.6 3.2 0.00 0.00 0.00 74 1016.7
20260504050612 12 142 0.0 3.2 0.00 0.00 0.00 74 1016.7
20260504050543 12 142 0.0 4.8 0.00 0.00 0.00 74 1016.7
20260504050335 12 142 0.0 4.8 0.00 0.00 0.00 74 1016.7
20260504050220 12 142 0.0 4.8 0.00 0.00 0.00 74 1016.6
20260504050111 12 142 0.0 4.8 0.00 0.00 0.00 74 1016.7
20260504050018 12 142 0.0 4.8 0.00 0.00 0.00 74 1016.7
20260504045923 12 142 0.0 4.8 0.00 0.00 0.00 74 1016.7
20260504045813 12 142 1.6 4.8 0.00 0.00 0.00 74 1016.6
20260504045720 12 142 1.6 4.8 0.00 0.00 0.00 74 1016.6
20260504045611 12 142 3.2 4.8 0.00 0.00 0.00 74 1016.6
20260504045519 12 142 3.2 4.8 0.00 0.00 0.00 74 1016.6
20260504045426 12 142 3.2 4.8 0.00 0.00 0.00 74 1016.6
20260504045333 12 142 3.2 4.8 0.00 0.00 0.00 74 1016.6
20260504045241 12 142 3.2 4.8 0.00 0.00 0.00 73 1016.6
20260504045128 12 142 3.2 4.8 0.00 0.00 0.00 72 1016.6
20260504045044 12 142 3.2 4.8 0.00 0.00 0.00 72 1016.6
20260504044837 12 142 3.2 4.8 0.00 0.00 0.00 72 1016.6
20260504044742 12 138 3.2 4.8 0.00 0.00 0.00 73 1016.6
20260504044628 12 144 3.2 4.8 0.00 0.00 0.00 73 1016.6
20260504044516 12 144 0.0 3.2 0.00 0.00 0.00 73 1016.6
20260504044444 12 165 0.0 0.0 0.00 0.00 0.00 73 1016.6
20260504044315 12 165 0.0 1.6 0.00 0.00 0.00 73 1016.6
20260504044222 12 165 0.0 1.6 0.00 0.00 0.00 72 1016.6
20260504044111 12 165 0.0 1.6 0.00 0.00 0.00 72 1016.6
20260504044019 12 165 0.0 3.2 0.00 0.00 0.00 72 1016.6
20260504043926 12 165 0.0 3.2 0.00 0.00 0.00 72 1016.6
20260504043834 12 165 0.0 3.2 0.00 0.00 0.00 72 1016.6
20260504043726 12 165 0.0 3.2 0.00 0.00 0.00 72 1016.6
20260504043614 12 165 0.0 3.2 0.00 0.00 0.00 72 1016.7
20260504043546 12 165 0.0 3.2 0.00 0.00 0.00 72 1016.7
20260504043320 12 165 0.0 3.2 0.00 0.00 0.00 72 1016.6
20260504043210 12 165 0.0 3.2 0.00 0.00 0.00 73 1016.5
20260504043118 12 165 0.0 0.0 0.00 0.00 0.00 73 1016.6
20260504043026 12 165 0.0 0.0 0.00 0.00 0.00 73 1016.6
20260504042913 12 165 0.0 0.0 0.00 0.00 0.00 73 1016.7
20260504042821 12 165 0.0 0.0 0.00 0.00 0.00 73 1016.7
20260504042714 12 165 0.0 0.0 0.00 0.00 0.00 73 1016.7
20260504042621 12 165 0.0 0.0 0.00 0.00 0.00 72 1016.7
20260504042510 12 165 0.0 0.0 0.00 0.00 0.00 72 1016.7
20260504042416 12 165 0.0 0.0 0.00 0.00 0.00 72 1016.7
20260504042343 12 165 0.0 0.0 0.00 0.00 0.00 71 1016.7
20260504042211 12 165 0.0 0.0 0.00 0.00 0.00 71 1016.7
20260504042121 12 165 0.0 0.0 0.00 0.00 0.00 71 1016.7
20260504042051 12 165 0.0 0.0 0.00 0.00 0.00 70 1016.7
20260504041825 12 165 0.0 0.0 0.00 0.00 0.00 70 1016.6
20260504041713 12 165 0.0 1.6 0.00 0.00 0.00 70 1016.6
20260504041620 12 165 0.0 3.2 0.00 0.00 0.00 70 1016.6
20260504041511 12 165 0.0 3.2 0.00 0.00 0.00 70 1016.6
20260504041417 12 165 0.0 3.2 0.00 0.00 0.00 70 1016.5
20260504041324 12 165 0.0 3.2 0.00 0.00 0.00 70 1016.5
20260504041212 12 165 0.0 4.8 0.00 0.00 0.00 70 1016.5
20260504041119 12 165 0.0 4.8 0.00 0.00 0.00 70 1016.5
20260504041010 12 165 0.0 6.4 0.00 0.00 0.00 70 1016.5
20260504040918 12 165 1.6 6.4 0.00 0.00 0.00 70 1016.4
20260504040825 12 165 1.6 6.4 0.00 0.00 0.00 70 1016.4
20260504040733 13 165 1.6 6.4 0.00 0.00 0.00 70 1016.4
20260504040618 13 165 3.2 6.4 0.00 0.00 0.00 70 1016.4
20260504040552 13 163 3.2 6.4 0.00 0.00 0.00 70 1016.4